TimeCDT,TemperatureF,Dew PointF,Humidity,Sea Level PressureIn,VisibilityMPH,Wind Direction,Wind SpeedMPH,Gust SpeedMPH,PrecipitationIn,Events,Conditions,WindDirDegrees,DateUTC
12:15 AM,71.6,46.4,41,29.94,10.0,South,17.3,31.1,N/A,,Clear,190,2011-10-08 05:15:00
12:35 AM,71.6,46.4,41,29.95,10.0,South,17.3,28.8,N/A,,Clear,180,2011-10-08 05:35:00
1:15 AM,71.6,46.4,41,29.95,10.0,SSW,19.6,32.2,N/A,,Clear,200,2011-10-08 06:15:00
1:35 AM,71.6,46.4,41,29.96,10.0,South,21.9,28.8,N/A,,Clear,190,2011-10-08 06:35:00
1:55 AM,71.6,46.4,41,29.95,10.0,South,19.6,29.9,N/A,,Clear,190,2011-10-08 06:55:00
2:35 AM,71.6,46.4,41,29.95,10.0,South,21.9,31.1,N/A,,Clear,190,2011-10-08 07:35:00
2:55 AM,71.6,46.4,41,29.96,10.0,South,17.3,33.4,N/A,,Clear,190,2011-10-08 07:55:00
3:35 AM,71.6,46.4,41,29.97,10.0,South,21.9,29.9,N/A,,Clear,190,2011-10-08 08:35:00
3:55 AM,71.6,46.4,41,29.98,10.0,South,17.3,27.6,N/A,,Clear,190,2011-10-08 08:55:00
4:15 AM,71.6,46.4,41,29.98,10.0,SSW,16.1,27.6,N/A,,Clear,200,2011-10-08 09:15:00
4:35 AM,71.6,46.4,41,29.98,10.0,South,19.6,27.6,N/A,,Scattered Clouds,190,2011-10-08 09:35:00
4:55 AM,71.6,46.4,41,29.98,10.0,South,20.7,27.6,N/A,,Partly Cloudy,190,2011-10-08 09:55:00
5:15 AM,71.6,48.2,43,29.99,10.0,SSW,20.7,28.8,N/A,,Clear,200,2011-10-08 10:15:00
5:35 AM,71.6,48.2,43,29.99,10.0,SSW,15.0,31.1,N/A,,Clear,200,2011-10-08 10:35:00
5:55 AM,71.6,48.2,43,29.99,10.0,South,15.0,31.1,N/A,,Clear,180,2011-10-08 10:55:00
6:15 AM,69.8,48.2,46,30.00,10.0,South,12.7,26.5,N/A,,Clear,190,2011-10-08 11:15:00
6:35 AM,69.8,48.2,46,30.01,10.0,South,15.0,27.6,N/A,,Clear,190,2011-10-08 11:35:00
6:55 AM,68.0,48.2,49,30.01,10.0,SSW,15.0,27.6,N/A,,Clear,200,2011-10-08 11:55:00
7:15 AM,68.0,48.2,49,30.02,10.0,South,13.8,31.1,N/A,,Clear,190,2011-10-08 12:15:00
7:35 AM,68.0,48.2,49,30.03,10.0,South,17.3,26.5,N/A,,Clear,190,2011-10-08 12:35:00
7:55 AM,68.0,48.2,49,30.03,10.0,South,15.0,25.3,N/A,,Clear,180,2011-10-08 12:55:00
8:15 AM,68.0,48.2,49,30.04,10.0,SSW,15.0,28.8,N/A,,Scattered Clouds,200,2011-10-08 13:15:00
8:35 AM,69.8,50.0,49,30.03,10.0,South,17.3,26.5,N/A,,Partly Cloudy,190,2011-10-08 13:35:00
8:55 AM,69.8,50.0,49,30.04,10.0,SSW,17.3,28.8,N/A,,Clear,200,2011-10-08 13:55:00
9:15 AM,69.8,48.2,46,30.05,10.0,South,16.1,25.3,N/A,,Clear,190,2011-10-08 14:15:00
9:35 AM,71.6,50.0,46,30.05,10.0,SSW,16.1,27.6,N/A,,Clear,200,2011-10-08 14:35:00
9:55 AM,71.6,50.0,46,30.05,10.0,SSW,23.0,29.9,N/A,,Clear,210,2011-10-08 14:55:00
10:15 AM,73.4,50.0,44,30.05,10.0,SSW,16.1,31.1,N/A,,Partly Cloudy,200,2011-10-08 15:15:00
10:35 AM,73.4,51.8,47,30.06,10.0,South,15.0,29.9,N/A,,Partly Cloudy,190,2011-10-08 15:35:00
10:55 AM,73.4,51.8,47,30.06,10.0,SSW,18.4,28.8,N/A,,Scattered Clouds,200,2011-10-08 15:55:00
11:15 AM,73.4,51.8,47,30.06,10.0,SSW,17.3,26.5,N/A,,Clear,200,2011-10-08 16:15:00
11:35 AM,75.2,51.8,44,30.06,10.0,SSW,18.4,27.6,N/A,,Clear,200,2011-10-08 16:35:00
11:55 AM,75.2,51.8,44,30.06,10.0,SSW,16.1,25.3,N/A,,Clear,200,2011-10-08 16:55:00
12:15 PM,75.2,51.8,44,30.06,10.0,SSW,17.3,26.5,N/A,,Clear,210,2011-10-08 17:15:00
12:35 PM,77.0,51.8,41,30.06,10.0,South,12.7,23.0,N/A,,Clear,190,2011-10-08 17:35:00
12:55 PM,77.0,51.8,41,30.05,10.0,SSW,12.7,18.4,N/A,,Clear,200,2011-10-08 17:55:00
1:15 PM,78.8,51.8,39,30.05,10.0,South,16.1,21.9,N/A,,Clear,180,2011-10-08 18:15:00
1:35 PM,80.6,51.8,37,30.04,10.0,SSW,13.8,25.3,N/A,,Clear,200,2011-10-08 18:35:00
1:55 PM,80.6,51.8,37,30.03,10.0,SW,20.7,26.5,N/A,,Clear,220,2011-10-08 18:55:00
2:15 PM,80.6,51.8,37,30.03,10.0,SW,17.3,23.0,N/A,,Clear,220,2011-10-08 19:15:00
2:35 PM,80.6,53.6,39,30.03,10.0,SSW,19.6,28.8,N/A,,Clear,210,2011-10-08 19:35:00
2:55 PM,80.6,53.6,39,30.03,10.0,SSW,23.0,28.8,N/A,,Clear,210,2011-10-08 19:55:00
3:15 PM,80.6,53.6,39,30.03,10.0,SSW,18.4,29.9,N/A,,Clear,200,2011-10-08 20:15:00
3:35 PM,80.6,53.6,39,30.03,10.0,South,19.6,31.1,N/A,,Clear,190,2011-10-08 20:35:00
3:55 PM,80.6,53.6,39,30.03,10.0,SSW,18.4,26.5,N/A,,Clear,210,2011-10-08 20:55:00
4:15 PM,80.6,53.6,39,30.03,10.0,SSW,15.0,29.9,N/A,,Clear,210,2011-10-08 21:15:00
4:35 PM,80.6,53.6,39,30.03,10.0,SSW,13.8,24.2,N/A,,Clear,210,2011-10-08 21:35:00
4:55 PM,80.6,53.6,39,30.03,10.0,SSW,19.6,26.5,N/A,,Clear,200,2011-10-08 21:55:00
5:15 PM,80.6,53.6,39,30.03,10.0,SSW,15.0,26.5,N/A,,Clear,210,2011-10-08 22:15:00
5:35 PM,78.8,53.6,42,30.03,10.0,SSW,13.8,19.6,N/A,,Clear,200,2011-10-08 22:35:00
5:55 PM,78.8,53.6,42,30.03,10.0,South,12.7,27.6,N/A,,Clear,190,2011-10-08 22:55:00
6:15 PM,78.8,53.6,42,30.04,10.0,South,11.5,20.7,N/A,,Clear,190,2011-10-08 23:15:00
6:35 PM,77.0,53.6,44,30.05,10.0,SSW,8.1,-,N/A,,Clear,200,2011-10-08 23:35:00
6:55 PM,77.0,53.6,44,30.05,10.0,SSW,9.2,16.1,N/A,,Clear,200,2011-10-08 23:55:00
7:15 PM,75.2,53.6,47,30.06,10.0,SSW,6.9,-,N/A,,Clear,210,2011-10-09 00:15:00
7:35 PM,75.2,53.6,47,30.07,10.0,SSW,10.4,-,N/A,,Clear,200,2011-10-09 00:35:00
7:55 PM,75.2,53.6,47,30.08,10.0,SW,6.9,-,N/A,,Clear,220,2011-10-09 00:55:00
8:15 PM,73.4,53.6,50,30.08,10.0,SSW,8.1,-,N/A,,Clear,210,2011-10-09 01:15:00
8:35 PM,73.4,53.6,50,30.09,10.0,South,11.5,-,N/A,,Clear,190,2011-10-09 01:35:00
8:55 PM,73.4,53.6,50,30.09,10.0,SSW,9.2,17.3,N/A,,Clear,200,2011-10-09 01:55:00
9:15 PM,73.4,53.6,50,30.09,10.0,South,11.5,16.1,N/A,,Clear,190,2011-10-09 02:15:00
9:35 PM,73.4,53.6,50,30.09,10.0,South,12.7,21.9,N/A,,Clear,190,2011-10-09 02:35:00
9:55 PM,73.4,53.6,50,30.09,10.0,South,17.3,25.3,N/A,,Clear,190,2011-10-09 02:55:00
10:15 PM,71.6,53.6,53,30.10,10.0,SSW,13.8,20.7,N/A,,Clear,200,2011-10-09 03:15:00
10:35 PM,71.6,53.6,53,30.10,10.0,South,15.0,24.2,N/A,,Clear,190,2011-10-09 03:35:00
10:55 PM,71.6,53.6,53,30.11,10.0,SSW,13.8,26.5,N/A,,Scattered Clouds,200,2011-10-09 03:55:00
11:15 PM,71.6,53.6,53,30.11,10.0,South,13.8,18.4,N/A,,Overcast,190,2011-10-09 04:15:00
11:35 PM,71.6,53.6,53,30.12,10.0,SSW,12.7,20.7,N/A,,Scattered Clouds,200,2011-10-09 04:35:00
11:55 PM,71.6,53.6,53,30.12,10.0,SSW,11.5,19.6,N/A,,Clear,200,2011-10-09 04:55:00